SKG024 CYWG-CYOO

Flight info

Callsign SKG024
Flight time N/A
Altitude 45000
Route RORMA DCT SIDPO DCT DEGVA DCT STNRD DCT ROTMA
Aircraft C750/M-SBDE3FGHRWXY/S

Departure

Time N/A
Airport Winnipeg / James Armstrong Richardson International Airport (CYWG)

Arrival

Time 2026-04-25 19:50
Airport Oshawa Executive Airport (CYOO)
Time Latitude Longitude Altitude Speed Heading
2026-04-25 19:45 43.98444 -79.12021 2612 ft 174 kts 107°
2026-04-25 19:45 43.98006 -79.10456 2605 ft 166 kts 108°
2026-04-25 19:45 43.97629 -79.09132 2576 ft 127 kts 107°
2026-04-25 19:46 43.97344 -79.08106 2578 ft 110 kts 106°
2026-04-25 19:46 43.97055 -79.07028 2602 ft 129 kts 106°
2026-04-25 19:46 43.96731 -79.05859 2618 ft 132 kts 107°
2026-04-25 19:46 43.96415 -79.04721 2606 ft 127 kts 107°
2026-04-25 19:47 43.96099 -79.03579 2607 ft 128 kts 107°
2026-04-25 19:47 43.95779 -79.02424 2488 ft 128 kts 107°
2026-04-25 19:47 43.95457 -79.01254 2289 ft 131 kts 106°
2026-04-25 19:47 43.95125 -79.00053 2100 ft 134 kts 106°
2026-04-25 19:48 43.94784 -78.98827 1897 ft 138 kts 106°
2026-04-25 19:48 43.94457 -78.97662 1677 ft 118 kts 103°
2026-04-25 19:48 43.94176 -78.96644 1493 ft 112 kts 102°
2026-04-25 19:48 43.93898 -78.95626 1321 ft 115 kts 104°
2026-04-25 19:49 43.93608 -78.94589 1156 ft 116 kts 107°
2026-04-25 19:49 43.93510 -78.94241 1106 ft 115 kts 107°
2026-04-25 19:49 43.93062 -78.92561 821 ft 111 kts 105°
2026-04-25 19:49 43.92776 -78.91558 700 ft 114 kts 106°
2026-04-25 19:50 43.92251 -78.89670 460 ft 84 kts 112°
2026-04-25 19:50 43.92132 -78.89250 455 ft 26 kts 111°
2026-04-25 19:50 43.92067 -78.89028 452 ft 22 kts 109°
2026-04-25 19:51 43.92121 -78.88961 452 ft 11 kts 339°
2026-04-25 19:51 43.92160 -78.89053 454 ft 12 kts 287°
2026-04-25 19:51 43.92191 -78.89171 455 ft 16 kts 291°
2026-04-25 19:51 43.92239 -78.89338 457 ft 19 kts 291°
2026-04-25 19:52 43.92283 -78.89493 459 ft 16 kts 289°
2026-04-25 19:52 43.92324 -78.89645 458 ft 17 kts 291°
2026-04-25 19:52 43.92352 -78.89742 459 ft 16 kts 291°
2026-04-25 19:52 43.92390 -78.89878 460 ft 14 kts 291°
2026-04-25 19:53 43.92422 -78.89991 461 ft 11 kts 291°
2026-04-25 19:53 43.92444 -78.90074 462 ft 11 kts 290°
2026-04-25 19:53 43.92473 -78.90175 463 ft 11 kts 290°
2026-04-25 19:53 43.92516 -78.90207 463 ft 7 kts 16°
2026-04-25 19:54 43.92559 -78.90217 463 ft 5 kts 313°
2026-04-25 19:54 43.92563 -78.90237 463 ft 0 kts 268°